The following orbital elements are taken from MPO190721
Epoch 2011 Feb. 8.0 TT = JDT 2455600.5 MPC
M 0.57728 (2000.0) P Q
n 0.00194968 Peri. 152.61043 -0.56862201 -0.04158820
a 63.4591836 Node 301.60170 +0.45897892 +0.81276505
e 0.9415721 Incl. 105.29428 +0.68264732 -0.58110532
P 506 H 14.9 G 0.15 U 0
From 36 observations at 2 oppositions, 2010-, mean residual 0".48.